| time (UTC) | temp F | wind direction | speed MPH | gust MPH | rain 1hr in | rain 24hr in | rain mn in | humidity % | barometer mb |
| 20260507140013 | 56 | 122 | 0.0 | 3.0 | 0.00 | 0.00 | 0.00 | 76 | 1013.6 |
| 20260507134507 | 56 | 148 | 0.0 | 3.0 | 0.00 | 0.00 | 0.00 | 77 | 1013.7 |
| 20260507133007 | 56 | 141 | 1.0 | 5.0 | 0.00 | 0.00 | 0.00 | 76 | 1013.6 |
| 20260507131515 | 56 | 66 | 0.0 | 2.0 | 0.00 | 0.00 | 0.00 | 76 | 1013.4 |
| 20260507130005 | 56 | 309 | 0.0 | 4.0 | 0.00 | 0.00 | 0.00 | 79 | 1013.4 |
| 20260507124509 | 56 | 78 | 0.0 | 3.0 | 0.00 | 0.00 | 0.00 | 79 | 1013.6 |
| 20260507123002 | 56 | 115 | 0.0 | 5.0 | 0.00 | 0.00 | 0.00 | 79 | 1013.0 |
| 20260507121503 | 56 | 78 | 0.0 | 3.0 | 0.00 | 0.00 | 0.00 | 81 | 1013.1 |
| 20260507120100 | 56 | 82 | 0.0 | 3.0 | 0.00 | 0.00 | 0.00 | 84 | 1012.8 |
| 20260507114609 | 55 | 139 | 0.0 | 3.0 | 0.00 | 0.00 | 0.00 | 85 | 1012.8 |
| 20260507113126 | 0 | 0.0 | 0.0 | 0.00 | 0.00 | 0.00 | 1012.9 | ||
| 20260507111556 | 0 | 0.0 | 0.0 | 0.00 | 0.00 | 0.00 | 1012.5 | ||
| 20260507110049 | 0 | 0.0 | 0.0 | 0.00 | 0.00 | 0.00 | 1012.8 | ||
| 20260507104544 | 0 | 0.0 | 0.0 | 0.00 | 0.00 | 0.00 | 1012.6 | ||
| 20260507103048 | 0 | 129 | 0.0 | 1.0 | 0.00 | 0.00 | 0.00 | 1012.5 | |
| 20260507101537 | 54 | 143 | 0.0 | 3.0 | 0.00 | 0.00 | 0.00 | 91 | 1012.0 |
| 20260507100036 | 54 | 111 | 0.0 | 1.0 | 0.00 | 0.00 | 0.00 | 92 | 1012.0 |
| 20260507094535 | 54 | 111 | 0.0 | 1.0 | 0.00 | 0.00 | 0.00 | 93 | 1012.5 |
| 20260507093035 | 55 | 111 | 0.0 | 0.0 | 0.00 | 0.00 | 0.00 | 94 | 1012.1 |
| 20260507091537 | 55 | 111 | 0.0 | 0.0 | 0.00 | 0.00 | 0.00 | 94 | 1012.4 |
| 20260507090033 | 55 | 111 | 0.0 | 2.0 | 0.00 | 0.00 | 0.00 | 94 | 1012.1 |
| 20260507084541 | 55 | 109 | 0.0 | 1.0 | 0.00 | 0.00 | 0.00 | 93 | 1011.7 |
| 20260507083031 | 55 | 101 | 0.0 | 1.0 | 0.00 | 0.00 | 0.00 | 93 | 1012.0 |
| 20260507081536 | 55 | 112 | 0.0 | 1.0 | 0.00 | 0.00 | 0.00 | 92 | 1012.1 |
| 20260507080029 | 55 | 113 | 0.0 | 1.0 | 0.00 | 0.00 | 0.00 | 92 | 1012.2 |
| 20260507074528 | 55 | 112 | 0.0 | 1.0 | 0.00 | 0.00 | 0.00 | 91 | 1011.5 |
| 20260507073026 | 55 | 108 | 0.0 | 3.0 | 0.00 | 0.00 | 0.00 | 92 | 1011.5 |
| 20260507071524 | 56 | 120 | 0.0 | 2.0 | 0.00 | 0.00 | 0.00 | 92 | 1011.2 |
| 20260507070023 | 56 | 110 | 0.0 | 4.0 | 0.00 | 0.00 | 0.00 | 92 | 1011.2 |
| 20260507064521 | 56 | 95 | 0.0 | 7.0 | 0.00 | 0.00 | 0.00 | 93 | 1011.4 |
| 20260507063023 | 57 | 121 | 0.0 | 5.0 | 0.00 | 0.00 | 0.00 | 94 | 1011.6 |
| 20260507061515 | 58 | 133 | 1.0 | 3.0 | 0.00 | 0.00 | 0.00 | 95 | 1011.8 |
| 20260507060013 | 58 | 143 | 2.0 | 4.0 | 0.00 | 0.00 | 0.00 | 95 | 1010.6 |
| 20260507054510 | 59 | 147 | 1.0 | 3.0 | 0.00 | 0.00 | 0.00 | 95 | 1009.7 |
| 20260507053009 | 60 | 351 | 0.0 | 3.0 | 0.00 | 0.00 | 0.00 | 94 | 1010.0 |
| 20260507051505 | 60 | 131 | 0.0 | 2.0 | 0.00 | 0.00 | 0.00 | 94 | 1010.9 |
| 20260507050002 | 61 | 132 | 0.0 | 5.0 | 0.00 | 0.00 | 0.00 | 93 | 1011.3 |
| 20260507044610 | 63 | 127 | 0.0 | 2.0 | 0.00 | 0.00 | 0.00 | 95 | 1010.8 |
| 20260507043104 | 64 | 122 | 0.0 | 1.0 | 0.00 | 0.00 | 0.00 | 96 | 1010.7 |
| 20260507041557 | 64 | 122 | 0.0 | 0.0 | 0.00 | 0.00 | 0.00 | 95 | 1010.4 |
| 20260507040051 | 64 | 122 | 0.0 | 0.0 | 0.00 | 0.00 | 0.00 | 95 | 1010.5 |
| 20260507034553 | 63 | 123 | 0.0 | 0.0 | 0.00 | 0.00 | 0.00 | 94 | 1010.4 |
| 20260507033050 | 64 | 123 | 0.0 | 0.0 | 0.00 | 0.00 | 0.00 | 93 | 1010.1 |
| 20260507031550 | 64 | 122 | 0.0 | 0.0 | 0.00 | 0.00 | 0.00 | 93 | 1010.1 |
| 20260507030049 | 64 | 122 | 0.0 | 0.0 | 0.00 | 0.00 | 0.00 | 93 | 1010.5 |
| 20260507024553 | 64 | 122 | 0.0 | 0.0 | 0.00 | 0.00 | 0.00 | 92 | 1010.1 |
| 20260507023103 | 64 | 122 | 0.0 | 1.0 | 0.00 | 0.00 | 0.00 | 92 | 1009.7 |
| 20260507021550 | 64 | 122 | 0.0 | 0.0 | 0.00 | 0.00 | 0.00 | 91 | 1009.4 |
| 20260507020056 | 65 | 122 | 0.0 | 0.0 | 0.00 | 0.00 | 0.00 | 90 | 1009.7 |
| 20260507014546 | 65 | 122 | 0.0 | 1.0 | 0.00 | 0.00 | 0.00 | 90 | 1009.9 |
| 20260507013046 | 65 | 122 | 0.0 | 0.0 | 0.00 | 0.00 | 0.00 | 89 | 1009.8 |
| 20260507011548 | 65 | 121 | 0.0 | 1.0 | 0.00 | 0.00 | 0.00 | 88 | 1010.1 |
| 20260507010046 | 66 | 121 | 0.0 | 2.0 | 0.00 | 0.00 | 0.00 | 88 | 1009.6 |
| 20260507004546 | 66 | 105 | 0.0 | 4.0 | 0.00 | 0.00 | 0.00 | 87 | 1009.6 |
| 20260507003045 | 67 | 300 | 0.0 | 3.0 | 0.00 | 0.00 | 0.00 | 86 | 1009.5 |
| 20260507001607 | 67 | 76 | 0.0 | 4.0 | 0.00 | 0.00 | 0.00 | 86 | 1009.6 |
| 20260507000044 | 68 | 134 | 0.0 | 2.0 | 0.00 | 0.00 | 0.00 | 85 | 1009.5 |
| 20260506234548 | 68 | 95 | 0.0 | 7.0 | 0.00 | 0.00 | 0.00 | 85 | 1009.4 |
| 20260506233042 | 68 | 98 | 0.0 | 5.0 | 0.00 | 0.00 | 0.00 | 84 | 1008.9 |
| 20260506231543 | 69 | 87 | 1.0 | 5.0 | 0.00 | 0.00 | 0.00 | 84 | 1009.0 |
| 20260506230052 | 69 | 28 | 0.0 | 6.0 | 0.00 | 0.00 | 0.00 | 83 | 1009.2 |
| 20260506224539 | 69 | 77 | 1.0 | 6.0 | 0.00 | 0.00 | 0.00 | 82 | 1009.1 |
| 20260506223039 | 70 | 95 | 1.0 | 8.0 | 0.00 | 0.00 | 0.00 | 82 | 1009.0 |
| 20260506221542 | 70 | 16 | 1.0 | 10.0 | 0.00 | 0.00 | 0.00 | 81 | 1009.3 |
| 20260506220038 | 71 | 233 | 0.0 | 9.0 | 0.00 | 0.00 | 0.00 | 79 | 1009.1 |
| 20260506214537 | 71 | 290 | 0.0 | 9.0 | 0.00 | 0.00 | 0.00 | 80 | 1008.9 |
| 20260506213036 | 71 | 314 | 2.0 | 7.0 | 0.00 | 0.00 | 0.00 | 79 | 1009.3 |
| 20260506211534 | 71 | 117 | 2.0 | 7.0 | 0.00 | 0.00 | 0.00 | 80 | 1009.1 |
| 20260506210048 | 70 | 100 | 1.0 | 11.0 | 0.00 | 0.00 | 0.00 | 80 | 1009.2 |
| 20260506204533 | 70 | 75 | 0.0 | 6.0 | 0.00 | 0.00 | 0.00 | 81 | 1009.0 |
| 20260506203035 | 70 | 117 | 1.0 | 6.0 | 0.00 | 0.00 | 0.00 | 81 | 1009.3 |
| 20260506201531 | 69 | 105 | 2.0 | 10.0 | 0.00 | 0.00 | 0.00 | 81 | 1009.3 |
| 20260506200033 | 68 | 82 | 1.0 | 6.0 | 0.00 | 0.00 | 0.00 | 84 | 1009.2 |
| 20260506194530 | 67 | 101 | 1.0 | 8.0 | 0.00 | 0.00 | 0.00 | 84 | 1009.2 |
| 20260506193035 | 66 | 111 | 1.0 | 12.0 | 0.00 | 0.00 | 0.00 | 85 | 1009.6 |
| 20260506191528 | 66 | 155 | 1.0 | 7.0 | 0.00 | 0.00 | 0.00 | 85 | 1009.8 |
| 20260506190030 | 66 | 92 | 1.0 | 5.0 | 0.00 | 0.00 | 0.00 | 86 | 1010.1 |
| 20260506184535 | 66 | 98 | 0.0 | 5.0 | 0.00 | 0.00 | 0.00 | 86 | 1010.3 |
| 20260506183023 | 66 | 98 | 2.0 | 7.0 | 0.00 | 0.00 | 0.00 | 86 | 1010.3 |
| 20260506181535 | 66 | 350 | 1.0 | 6.0 | 0.00 | 0.00 | 0.00 | 87 | 1010.4 |
| 20260506180020 | 65 | 69 | 2.0 | 8.0 | 0.00 | 0.00 | 0.00 | 86 | 1010.4 |
| 20260506174520 | 66 | 59 | 2.0 | 7.0 | 0.00 | 0.00 | 0.00 | 86 | 1010.4 |
| 20260506173019 | 65 | 136 | 2.0 | 8.0 | 0.00 | 0.00 | 0.00 | 87 | 1010.5 |
| 20260506171518 | 64 | 90 | 3.0 | 8.0 | 0.00 | 0.00 | 0.00 | 87 | 1010.7 |
| 20260506170025 | 64 | 68 | 1.0 | 6.0 | 0.00 | 0.00 | 0.00 | 89 | 1010.6 |
| 20260506164535 | 64 | 126 | 1.0 | 6.0 | 0.00 | 0.00 | 0.00 | 89 | 1010.9 |
| 20260506163016 | 63 | 124 | 2.0 | 7.0 | 0.00 | 0.00 | 0.00 | 91 | 1010.9 |
| 20260506161514 | 62 | 113 | 1.0 | 12.0 | 0.00 | 0.00 | 0.00 | 91 | 1011.4 |
| 20260506160016 | 62 | 63 | 1.0 | 6.0 | 0.00 | 0.00 | 0.00 | 93 | 1011.0 |
| 20260506154512 | 62 | 113 | 0.0 | 5.0 | 0.00 | 0.00 | 0.00 | 94 | 1010.9 |
| 20260506153012 | 61 | 74 | 1.0 | 9.0 | 0.00 | 0.00 | 0.00 | 94 | 1010.9 |
| 20260506151514 | 61 | 99 | 3.0 | 7.0 | 0.00 | 0.00 | 0.00 | 93 | 1010.9 |
| 20260506150009 | 61 | 130 | 1.0 | 7.0 | 0.00 | 0.00 | 0.00 | 93 | 1011.2 |
| 20260506144511 | 61 | 46 | 1.0 | 7.0 | 0.00 | 0.00 | 0.00 | 93 | 1011.3 |
| 20260506143007 | 61 | 162 | 0.0 | 8.0 | 0.00 | 0.00 | 0.00 | 91 | 1011.8 |
| 20260506141516 | 62 | 40 | 0.0 | 5.0 | 0.00 | 0.00 | 0.00 | 90 | 1011.7 |